sat.trackr.live / text

‹ back to catalog

O3B FM10

NORAD 40348 · 2014-083A

PAYLOAD ACTIVE UNKNOWN

§ Identity

Operator
Country
O3B
Launch date
2014-12-18
Launch site
FRGUI
Launch vehicle
Mass (kg)
RCS (m²)
0.50

Purposes: comms

External: N2YO · Heavens-Above · Gunter

§ Orbital elements

Epoch: 2026-09-09T12:18:59.596992Z

Period
287.93 min
Inclination
0.0498°
Eccentricity
0.0002635
Mean motion
5.00115605 rev/d
Perigee alt
8,062.1 km
Apogee alt
8,069.7 km
Semi-major
14,444.0 km
B*
0.0000e+0
RAAN
344.0854°
Arg perigee
184.3978°
Mean anomaly
191.5217°
Rev number
21,411

§ Raw data

O3B FM101 40348U 14083A   26252.51318978 -.00000028  00000+0  00000+0 0  99932 40348   0.0498 344.0854 0002635 184.3978 191.5217  5.00115605214114

JSON: /api/v1/satellites/40348 · /tle

For live sub-satellite position, see the globe view (requires WebGL).

§ Visibility from observer

Set your observer location to see the next 7 days of passes ≥ 10°. The values pass through the URL so the page stays shareable.

No JS? Fill the form by hand. The geolocation button needs JavaScript.